GW2412 Weather Reports


Display with metric or nautical units.
time (UTC)temp
F
wind
direction
speed
MPH
gust
MPH
rain 1hr
in
rain 24hr
in
rain mn
in
humidity
%
barometer
mb
20260901134552 57 80 5.0 8.0 0.00 0.00 0.00 1 1014.1
20260901134022 57 69 4.0 9.0 0.00 0.00 0.00 1 1014.1
20260901133516 57 53 5.0 9.0 0.00 0.00 0.00 1 1014.2
20260901133041 57 66 5.0 8.0 0.00 0.00 0.00 1 1014.2
20260901132519 57 92 6.0 8.0 0.00 0.00 0.00 1 1014.2
20260901132022 57 87 5.0 10.0 0.00 0.00 0.00 1 1014.1
20260901131547 57 84 6.0 10.0 0.00 0.00 0.00 1 1014.1
20260901131023 57 87 7.0 9.0 0.00 0.00 0.00 1 1014.1
20260901130522 56 90 7.0 9.0 0.00 0.00 0.00 1 1014.2
20260901130055 56 84 5.0 11.0 0.00 0.00 0.00 1 1014.2
20260901125517 56 98 6.0 14.0 0.00 0.00 0.00 1 1014.3
20260901125016 57 82 8.0 14.0 0.00 0.00 0.00 1 1014.2
20260901124540 56 79 7.0 12.0 0.00 0.00 0.00 1 1014.2
20260901124020 55 90 5.0 10.0 0.00 0.00 0.00 1 1014.2
20260901123517 54 74 5.0 9.0 0.00 0.00 0.00 1 1014.1
20260901123046 54 64 6.0 9.0 0.00 0.00 0.00 1 1014.1
20260901122521 54 79 5.0 9.0 0.00 0.00 0.00 1 1014.1
20260901122018 53 57 5.0 7.0 0.00 0.00 0.00 1 1014.2
20260901121548 54 59 5.0 7.0 0.00 0.00 0.00 1 1014.3
20260901121019 54 78 5.0 8.0 0.00 0.00 0.00 1 1014.2
20260901120521 55 78 5.0 10.0 0.00 0.00 0.00 1 1014.3
20260901120045 56 82 6.0 10.0 0.00 0.00 0.00 1 1014.2
20260901115519 55 84 6.0 10.0 0.00 0.00 0.00 1 1014.2
20260901115019 55 92 5.0 13.0 0.00 0.00 0.00 1 1014.3
20260901114543 55 96 7.0 12.0 0.00 0.00 0.00 1 1014.2
20260901114019 55 89 6.0 11.0 0.00 0.00 0.00 1 1014.3
20260901113521 54 90 7.0 10.0 0.00 0.00 0.00 1 1014.5
20260901113056 54 67 5.0 9.0 0.00 0.00 0.00 1 1014.5
20260901112522 53 89 5.0 9.0 0.00 0.00 0.00 1 1014.4
20260901112017 53 52 5.0 7.0 0.00 0.00 0.00 1 1014.3
20260901111550 53 52 4.0 7.0 0.00 0.00 0.00 1 1014.4
20260901111021 54 52 5.0 9.0 0.00 0.00 0.00 1 1014.6
20260901110519 55 52 5.0 10.0 0.00 0.00 0.00 1 1014.5
20260901110045 56 78 4.0 10.0 0.00 0.00 0.00 1 1014.6
20260901105516 57 74 5.0 12.0 0.00 0.00 0.00 1 1014.6
20260901105021 57 90 7.0 12.0 0.00 0.00 0.00 1 1014.7
20260901104550 56 91 9.0 11.0 0.00 0.00 0.00 1 1014.8
20260901104018 56 94 7.0 10.0 0.00 0.00 0.00 1 1014.6
20260901103518 56 97 6.0 10.0 0.00 0.00 0.00 1 1014.7
20260901103050 55 91 5.0 10.0 0.00 0.00 0.00 1 1014.6
20260901102521 55 65 6.0 10.0 0.00 0.00 0.00 1 1014.6
20260901102021 55 74 5.0 11.0 0.00 0.00 0.00 1 1014.7
20260901101600 56 59 6.0 11.0 0.00 0.00 0.00 1 1014.9
20260901101020 56 85 4.0 9.0 0.00 0.00 0.00 1 1014.9
20260901100517 57 74 4.0 9.0 0.00 0.00 0.00 1 1015.0
20260901100053 57 78 4.0 9.0 0.00 0.00 0.00 1 1014.9
20260901095520 57 96 4.0 10.0 0.00 0.00 0.00 1 1014.7
20260901095018 57 92 7.0 10.0 0.00 0.00 0.00 1 1015.0
20260901094546 55 85 5.0 9.0 0.00 0.00 0.00 1 1015.0
20260901094019 54 69 4.0 6.0 0.00 0.00 0.00 1 1015.0
20260901093519 53 69 4.0 5.0 0.00 0.00 0.00 1 1015.1
20260901093107 53 46 2.0 5.0 0.00 0.00 0.00 1 1015.1
20260901092520 52 46 2.0 5.0 0.00 0.00 0.00 1 1015.1
20260901092018 53 46 2.0 5.0 0.00 0.00 0.00 1 1015.0
20260901091556 52 46 1.0 5.0 0.00 0.00 0.00 1 1015.0
20260901091015 52 46 2.0 4.0 0.00 0.00 0.00 1 1015.0
20260901090517 52 46 2.0 4.0 0.00 0.00 0.00 1 1015.1
20260901090046 52 46 0.0 4.0 0.00 0.00 0.00 1 1015.1
20260901085517 52 46 1.0 5.0 0.00 0.00 0.00 1 1015.0
20260901085018 52 49 3.0 6.0 0.00 0.00 0.00 1 1015.0
20260901084539 52 46 3.0 6.0 0.00 0.00 0.00 1 1015.0
20260901084019 51 61 2.0 5.0 0.00 0.00 0.00 1 1015.2
20260901083518 50 61 2.0 4.0 0.00 0.00 0.00 1 1015.3
20260901083042 50 61 1.0 3.0 0.00 0.00 0.00 1 1015.3
20260901082517 51 61 2.0 5.0 0.00 0.00 0.00 1 1015.3
20260901082019 51 61 2.0 5.0 0.00 0.00 0.00 1 1015.2
20260901081534 51 61 1.0 4.0 0.00 0.00 0.00 1 1015.2
20260901081017 51 61 2.0 4.0 0.00 0.00 0.00 1 1015.2
20260901080518 51 61 1.0 3.0 0.00 0.00 0.00 1 1015.3
20260901080123 51 61 1.0 3.0 0.00 0.00 0.00 1 1015.3
20260901075516 50 61 1.0 3.0 0.00 0.00 0.00 1 1015.4
20260901075018 50 61 0.0 3.0 0.00 0.00 0.00 1 1015.5
20260901074534 49 61 0.0 3.0 0.00 0.00 0.00 1 1015.5
20260901074019 50 61 1.0 3.0 0.00 0.00 0.00 1 1015.5
20260901073517 50 61 1.0 3.0 0.00 0.00 0.00 1 1015.6
20260901073036 50 61 0.0 2.0 0.00 0.00 0.00 1 1015.5
20260901072519 50 61 0.0 3.0 0.00 0.00 0.00 1 1015.4
20260901072019 51 61 1.0 3.0 0.00 0.00 0.00 1 1015.4
20260901071538 51 61 0.0 2.0 0.00 0.00 0.00 1 1015.5
20260901071021 52 61 0.0 3.0 0.00 0.00 0.00 1 1015.4
20260901070516 53 61 1.0 5.0 0.00 0.00 0.00 1 1015.4
20260901070038 53 61 2.0 5.0 0.00 0.00 0.00 1 1015.4
20260901065519 53 61 2.0 4.0 0.00 0.00 0.00 1 1015.4
20260901065018 53 61 1.0 3.0 0.00 0.00 0.00 1 1015.5
20260901064534 53 61 1.0 4.0 0.00 0.00 0.00 1 1015.5
20260901064018 54 61 2.0 4.0 0.00 0.00 0.00 1 1015.6
20260901063516 54 61 2.0 4.0 0.00 0.00 0.00 1 1015.5
20260901063051 54 61 3.0 4.0 0.00 0.00 0.00 1 1015.5
20260901062517 54 61 2.0 5.0 0.00 0.00 0.00 1 1015.5
20260901062017 54 61 2.0 4.0 0.00 0.00 0.00 1 1015.4
20260901061550 55 61 2.0 5.0 0.00 0.00 0.00 1 1015.5
20260901061019 55 35 3.0 4.0 0.00 0.00 0.00 1 1015.7
20260901060519 55 34 2.0 5.0 0.00 0.00 0.00 1 1015.6
20260901060038 55 34 3.0 5.0 0.00 0.00 0.00 1 1015.5
20260901055518 56 34 3.0 5.0 0.00 0.00 0.00 1 1015.4
20260901055020 56 61 2.0 5.0 0.00 0.00 0.00 1 1015.5
20260901054549 56 55 2.0 5.0 0.00 0.00 0.00 1 1015.5
20260901054018 56 34 2.0 5.0 0.00 0.00 0.00 1 1015.6
20260901053516 55 60 2.0 5.0 0.00 0.00 0.00 1 1015.6
20260901053041 54 31 2.0 4.0 0.00 0.00 0.00 1 1015.5
20260901052516 53 30 2.0 4.0 0.00 0.00 0.00 1 1015.6
20260901052020 53 340 0.0 2.0 0.00 0.00 0.00 1 1015.6
20260901051545 53 341 0.0 4.0 0.00 0.00 0.00 1 1015.7
20260901051018 53 340 1.0 4.0 0.00 0.00 0.00 1 1015.8
20260901050517 54 39 0.0 3.0 0.00 0.00 0.00 1 1015.7
20260901050041 55 39 1.0 3.0 0.00 0.00 0.00 1 1015.6
20260901045518 56 39 1.0 5.0 0.00 0.00 0.00 1 1015.7
20260901045020 56 39 2.0 5.0 0.00 0.00 0.00 1 1015.7
20260901044606 56 39 3.0 5.0 0.00 0.00 0.00 1 1015.7
20260901044017 56 62 3.0 5.0 0.00 0.00 0.00 1 1015.7
20260901043519 56 62 3.0 5.0 0.00 0.00 0.00 1 1015.8
20260901043041 55 63 2.0 5.0 0.00 0.00 0.00 1 1015.8
20260901042516 55 62 3.0 5.0 0.00 0.00 0.00 1 1015.7
20260901042020 55 62 1.0 4.0 0.00 0.00 0.00 1 1015.6
20260901041544 56 62 0.0 4.0 0.00 0.00 0.00 1 1015.7
20260901041020 56 62 2.0 4.0 0.00 0.00 0.00 1 1015.6
20260901040516 56 62 2.0 5.0 0.00 0.00 0.00 1 1015.7
20260901035517 54 63 3.0 5.0 0.00 0.00 0.00 1 1015.5
20260901035015 54 62 0.0 1.0 0.00 0.00 0.00 1 1015.5
20260901034550 54 62 0.0 0.0 0.00 0.00 0.00 1 1015.3
20260901034016 55 62 0.0 4.0 0.00 0.00 0.00 1 1015.5
20260901033517 55 63 1.0 3.0 0.00 0.00 0.00 1 1015.3
20260901033045 55 62 0.0 3.0 0.00 0.00 0.00 1 1015.2
20260901032519 56 62 1.0 4.0 0.00 0.00 0.00 1 1015.2
20260901032017 57 62 1.0 5.0 0.00 0.00 0.00 1 1015.2
20260901031544 57 62 3.0 5.0 0.00 0.00 0.00 1 1015.1
20260901031016 58 62 2.0 4.0 0.00 0.00 0.00 1 1015.2
20260901030516 58 62 2.0 3.0 0.00 0.00 0.00 1 1015.0
20260901030051 58 62 1.0 3.0 0.00 0.00 0.00 1 1015.0
20260901025522 58 62 1.0 3.0 0.00 0.00 0.00 1 1014.9
20260901025018 58 62 1.0 3.0 0.00 0.00 0.00 1 1015.0
20260901024558 59 62 2.0 3.0 0.00 0.00 0.00 1 1015.1
20260901024018 60 234 0.0 2.0 0.00 0.00 0.00 1 1015.0
20260901023520 61 234 1.0 2.0 0.00 0.00 0.00 1 1015.2
20260901023050 61 234 1.0 3.0 0.00 0.00 0.00 1 1015.0
20260901022518 62 234 1.0 2.0 0.00 0.00 0.00 1 1015.0
20260901022019 63 234 0.0 3.0 0.00 0.00 0.00 1 1015.0
20260901021603 64 234 1.0 4.0 0.00 0.00 0.00 1 1015.0
20260901021016 65 234 2.0 3.0 0.00 0.00 0.00 1 1015.1
20260901020517 65 234 1.0 3.0 0.00 0.00 0.00 1 1015.2
20260901020051 66 234 0.0 1.0 0.00 0.00 0.00 1 1015.0
20260901015516 67 234 0.0 2.0 0.00 0.00 0.00 1 1015.2
20260901015020 68 234 0.0 2.0 0.00 0.00 0.00 1 1015.0
20260901014559 68 234 1.0 4.0 0.00 0.00 0.00 1 1015.0
20260901014019 69 234 2.0 4.0 0.00 0.00 0.00 1 1015.0
20260901013519 70 234 3.0 4.0 0.00 0.00 0.00 1 1015.1
20260901013046 71 234 1.0 3.0 0.00 0.00 0.00 1 1015.1
20260901012521 71 234 1.0 4.0 0.00 0.00 0.00 1 1015.2
20260901012022 71 234 2.0 5.0 0.00 0.00 0.00 1 1015.2
20260901011550 71 234 3.0 5.0 0.00 0.00 0.00 1 1015.4
20260901011020 71 234 3.0 7.0 0.00 0.00 0.00 1 1015.5
20260901010516 71 201 3.0 7.0 0.00 0.00 0.00 1 1015.5
20260901010045 71 201 3.0 7.0 0.00 0.00 0.00 1 1015.5
20260901005519 72 236 4.0 7.0 0.00 0.01 0.00 1 1015.5
20260901005021 72 202 2.0 6.0 0.00 0.01 0.00 1 1015.5
20260901004555 72 207 2.0 6.0 0.00 0.01 0.00 1 1015.4
20260901004017 72 214 4.0 8.0 0.00 0.01 0.00 1 1015.4
20260901003517 72 258 5.0 10.0 0.00 0.01 0.00 1 1015.4
20260901003045 72 238 3.0 8.0 0.00 0.01 0.00 1 1015.5
20260901002520 72 238 5.0 8.0 0.00 0.01 0.00 1 1015.6
20260901002026 72 230 3.0 9.0 0.00 0.01 0.00 1 1015.5
20260901001545 72 180 6.0 9.0 0.00 0.01 0.00 1 1015.6
20260901001019 72 227 4.0 10.0 0.00 0.01 0.00 1 1015.7
20260901000519 72 196 5.0 10.0 0.00 0.01 0.00 1 1015.6
20260901000054 72 250 3.0 12.0 0.00 0.01 0.00 1 1015.7
20260831235516 71 223 7.0 12.0 0.00 0.02 0.00 1 1015.8
20260831235023 72 213 7.0 10.0 0.00 0.02 0.00 1 1015.8
20260831234550 72 204 6.0 8.0 0.00 0.02 0.00 1 1015.8
20260831234018 71 220 4.0 10.0 0.00 0.02 0.00 1 1015.7
20260831233518 71 240 5.0 10.0 0.00 0.02 0.00 1 1015.7
20260831233049 72 240 6.0 12.0 0.00 0.02 0.00 1 1015.8
20260831232517 72 270 7.0 12.0 0.00 0.02 0.00 1 1015.8
20260831232022 72 250 6.0 10.0 0.00 0.02 0.00 1 1015.8
20260831231600 72 221 2.0 9.0 0.00 0.02 0.00 1 1015.8
20260831231019 71 221 3.0 13.0 0.00 0.02 0.00 1 1015.8
20260831230518 71 254 9.0 13.0 0.00 0.02 0.00 1 1015.9
20260831230059 71 221 4.0 10.0 0.00 0.02 0.00 1 1015.9
20260831225518 71 288 7.0 14.0 0.00 0.02 0.00 1 1016.0
20260831225017 72 223 9.0 14.0 0.00 0.02 0.00 1 1015.9
20260831224622 71 190 2.0 10.0 0.00 0.02 0.00 1 1015.9
20260831224021 71 205 7.0 13.0 0.00 0.02 0.00 1 1016.0
20260831223521 71 266 7.0 13.0 0.00 0.02 0.00 1 1016.1
20260831223054 71 205 9.0 13.0 0.00 0.02 0.00 1 1016.1
20260831222519 71 229 3.0 15.0 0.00 0.02 0.00 1 1016.1
20260831222017 71 291 7.0 15.0 0.00 0.02 0.00 1 1016.1
20260831221554 71 140 2.0 11.0 0.00 0.02 0.00 1 1016.1
20260831221017 71 157 3.0 14.0 0.00 0.02 0.00 1 1016.0
20260831220521 71 193 8.0 15.0 0.00 0.02 0.00 1 1016.1
20260831220053 72 196 9.0 13.0 0.00 0.02 0.00 1 1016.1
20260831215523 71 188 4.0 13.0 0.00 0.02 0.00 1 1016.0
20260831215019 71 250 6.0 13.0 0.00 0.02 0.00 1 1016.2
20260831214555 70 186 7.0 16.0 0.00 0.02 0.00 1 1016.1
20260831214023 71 198 8.0 16.0 0.00 0.02 0.00 1 1016.2
20260831213520 71 225 9.0 15.0 0.00 0.02 0.00 1 1016.2
20260831213050 70 192 9.0 15.0 0.00 0.02 0.00 1 1016.2
20260831212519 70 196 6.0 18.0 0.00 0.02 0.00 1 1016.3
20260831212020 70 265 7.0 14.0 0.00 0.02 0.00 1 1016.2
20260831211605 70 171 3.0 11.0 0.00 0.02 0.00 1 1016.2
20260831211019 70 314 6.0 15.0 0.00 0.02 0.00 1 1016.1
20260831210520 69 186 8.0 15.0 0.00 0.02 0.00 1 1016.2
20260831210045 70 198 10.0 14.0 0.00 0.02 0.00 1 1016.2
20260831205517 69 240 3.0 16.0 0.00 0.02 0.00 1 1016.2
20260831205019 69 232 10.0 16.0 0.00 0.02 0.00 1 1016.2
20260831204553 69 275 11.0 15.0 0.00 0.02 0.00 1 1016.4
20260831204019 69 228 8.0 14.0 0.00 0.02 0.00 1 1016.3
20260831203519 69 191 9.0 14.0 0.00 0.02 0.00 1 1016.2
20260831203049 69 210 7.0 13.0 0.00 0.02 0.00 1 1016.4
20260831202517 68 217 5.0 18.0 0.00 0.02 0.00 1 1016.5
20260831202019 69 261 7.0 18.0 0.00 0.02 0.00 1 1016.5
20260831201553 68 247 9.0 16.0 0.00 0.02 0.00 1 1016.6
20260831201021 68 298 9.0 17.0 0.00 0.02 0.00 1 1016.6
20260831200519 68 279 11.0 20.0 0.00 0.02 0.00 1 1016.7
20260831200051 69 256 14.0 20.0 0.00 0.02 0.00 1 1016.8
20260831195521 68 277 9.0 16.0 0.00 0.02 0.00 1 1016.5
20260831195016 67 257 6.0 18.0 0.00 0.02 0.00 1 1016.6
20260831194557 67 265 11.0 18.0 0.00 0.02 0.00 1 1016.8
20260831194024 68 261 8.0 18.0 0.00 0.02 0.00 1 1016.6
20260831193519 67 240 10.0 18.0 0.00 0.02 0.00 1 1016.8
20260831193100 67 248 8.0 17.0 0.00 0.02 0.00 1 1016.8
20260831192519 67 246 9.0 17.0 0.00 0.02 0.00 1 1016.7
20260831192022 67 204 9.0 16.0 0.00 0.02 0.00 1 1016.7
20260831191553 67 232 7.0 14.0 0.00 0.02 0.00 1 1016.9
20260831191018 66 269 6.0 16.0 0.00 0.02 0.00 1 1016.9
20260831190516 67 236 11.0 16.0 0.00 0.02 0.00 1 1017.0
20260831190053 67 310 6.0 18.0 0.00 0.02 0.00 1 1017.0
20260831185519 67 261 9.0 16.0 0.00 0.02 0.00 1 1017.0
20260831185021 66 227 8.0 17.0 0.00 0.02 0.00 1 1017.1
20260831184549 66 220 10.0 17.0 0.00 0.02 0.00 1 1017.2
20260831184020 66 299 5.0 13.0 0.00 0.02 0.00 1 1017.4
20260831183520 66 232 8.0 14.0 0.00 0.02 0.00 1 1017.4
20260831183059 66 284 9.0 17.0 0.00 0.02 0.00 1 1017.4
20260831182518 65 294 10.0 18.0 0.00 0.02 0.00 1 1017.3
20260831182023 65 329 11.0 18.0 0.00 0.02 0.00 1 1017.2
20260831181556 65 309 9.0 17.0 0.00 0.02 0.00 1 1017.2
20260831181022 65 338 13.0 20.0 0.00 0.02 0.00 1 1017.3
20260831180522 65 311 12.0 20.0 0.00 0.02 0.00 1 1017.2
20260831175519 65 325 10.0 16.0 0.00 0.02 0.00 1 1017.1
20260831175019 65 325 10.0 16.0 0.00 0.02 0.00 1 1017.1
20260831174601 64 323 11.0 17.0 0.00 0.02 0.00 1 1017.2
20260831174020 64 292 10.0 20.0 0.00 0.02 0.00 1 1017.3
20260831173518 64 318 12.0 20.0 0.00 0.02 0.00 1 1017.3
20260831173055 64 298 12.0 20.0 0.00 0.02 0.00 1 1017.2
20260831172524 64 317 13.0 19.0 0.00 0.02 0.00 1 1016.8
20260831172021 64 313 14.0 19.0 0.00 0.02 0.00 1 1017.1
20260831171603 63 292 12.0 20.0 0.00 0.02 0.00 1 1017.1
20260831171017 63 313 11.0 20.0 0.00 0.02 0.00 1 1017.0
20260831170523 63 318 11.0 20.0 0.00 0.02 0.00 1 1017.1
20260831170128 63 313 12.0 21.0 0.00 0.02 0.00 1 1017.1
20260831165523 63 287 12.0 20.0 0.00 0.02 0.00 1 1017.4
20260831165023 63 306 13.0 20.0 0.00 0.02 0.00 1 1017.1
20260831164604 63 276 12.0 20.0 0.00 0.02 0.00 1 1017.2
20260831164019 62 281 12.0 22.0 0.00 0.02 0.00 1 1017.2
20260831163518 62 311 13.0 20.0 0.00 0.02 0.00 1 1017.0
20260831163101 62 298 14.0 21.0 0.00 0.02 0.00 1 1016.8
20260831162525 62 316 12.0 22.0 0.00 0.02 0.00 1 1016.8
20260831162020 61 297 14.0 22.0 0.00 0.02 0.00 1 1016.6
20260831161616 61 310 15.0 22.0 0.00 0.02 0.00 1 1016.6
20260831161020 61 309 16.0 22.0 0.00 0.02 0.00 1 1016.5
20260831160517 61 260 15.0 22.0 0.00 0.02 0.00 1 1016.3
20260831160108 61 276 15.0 24.0 0.00 0.02 0.00 1 1016.6
20260831155524 61 299 18.0 24.0 0.00 0.02 0.00 1 1016.4
20260831155028 61 314 15.0 23.0 0.00 0.02 0.00 1 1016.4
20260831154650 61 286 16.0 24.0 0.00 0.02 0.00 1 1016.3
20260831154025 60 281 16.0 27.0 0.00 0.02 0.00 1 1016.5
20260831153520 60 317 18.0 27.0 0.00 0.02 0.00 1 1016.2
20260831153123 60 324 17.0 23.0 0.00 0.02 0.00 1 1016.3
20260831152520 60 300 15.0 23.0 0.00 0.02 0.00 1 1016.2
20260831152021 60 333 14.0 26.0 0.00 0.02 0.00 1 1016.3
20260831151619 59 302 18.0 26.0 0.00 0.02 0.00 1 1016.2
20260831151025 60 313 15.0 24.0 0.00 0.02 0.00 1 1015.9
20260831150525 59 321 16.0 24.0 0.00 0.02 0.00 1 1015.9
20260831150116 60 317 15.0 23.0 0.00 0.02 0.00 1 1015.8
20260831145520 59 325 16.0 23.0 0.00 0.02 0.00 1 1016.2
20260831145022 59 308 16.0 26.0 0.00 0.02 0.00 1 1016.1
20260831144624 59 306 17.0 26.0 0.00 0.02 0.00 1 1016.2
20260831144028 59 330 15.0 23.0 0.00 0.02 0.00 1 1015.7
20260831143521 59 308 14.0 23.0 0.00 0.02 0.00 1 1016.0
20260831143132 58 300 17.0 23.0 0.00 0.02 0.00 1 1015.3
20260831142525 57 319 11.0 18.0 0.00 0.02 0.00 1 1015.6
20260831142020 57 277 11.0 17.0 0.00 0.02 0.00 1 1015.7
20260831141627 56 268 13.0 18.0 0.00 0.02 0.00 1 1015.7
20260831141017 56 294 14.0 18.0 0.00 0.02 0.00 1 1015.5
20260831140524 55 265 13.0 19.0 0.00 0.02 0.00 1 1015.6
20260831140124 55 283 13.0 19.0 0.00 0.02 0.00 1 1015.5
20260831135524 54 284 14.0 19.0 0.00 0.02 0.00 1 1015.5
20260831135023 54 277 13.0 19.0 0.00 0.02 0.00 1 1015.4
20260831134625 54 290 13.0 21.0 0.00 0.02 0.00 1 1015.3